owner,sensor,date,latitude,longitude,sea_water_turbidity,qcFlag 
NERRS,ioos:station:NOAA.NERRS:wkbfrwq:1,2016-06-01T00:45:00Z,30.4162,-87.8228,22.0,1111122 
NERRS,ioos:station:NOAA.NERRS:wkbfrwq:1,2016-06-01T01:45:00Z,30.4162,-87.8228,47.0,1111122 
NERRS,ioos:station:NOAA.NERRS:wkbfrwq:1,2016-06-01T02:45:00Z,30.4162,-87.8228,40.0,1111122 
NERRS,ioos:station:NOAA.NERRS:wkbfrwq:1,2016-06-01T03:45:00Z,30.4162,-87.8228,33.0,1111122 
NERRS,ioos:station:NOAA.NERRS:wkbfrwq:1,2016-06-01T04:45:00Z,30.4162,-87.8228,38.0,1111122 
NERRS,ioos:station:NOAA.NERRS:wkbfrwq:1,2016-06-01T05:45:00Z,30.4162,-87.8228,39.0,1111122 
NERRS,ioos:station:NOAA.NERRS:wkbfrwq:1,2016-06-01T06:45:00Z,30.4162,-87.8228,32.0,1111122 
NERRS,ioos:station:NOAA.NERRS:wkbfrwq:1,2016-06-01T08:45:00Z,30.4162,-87.8228,34.0,1111122 
NERRS,ioos:station:NOAA.NERRS:wkbfrwq:1,2016-06-01T09:45:00Z,30.4162,-87.8228,29.0,1111122 
NERRS,ioos:station:NOAA.NERRS:wkbfrwq:1,2016-06-01T10:45:00Z,30.4162,-87.8228,28.0,1111122 
NERRS,ioos:station:NOAA.NERRS:wkbfrwq:1,2016-06-01T11:45:00Z,30.4162,-87.8228,33.0,1111122 
NERRS,ioos:station:NOAA.NERRS:wkbfrwq:1,2016-06-01T13:45:00Z,30.4162,-87.8228,38.0,1111122 
NERRS,ioos:station:NOAA.NERRS:wkbfrwq:1,2016-06-01T14:45:00Z,30.4162,-87.8228,37.0,1111122 
NERRS,ioos:station:NOAA.NERRS:wkbfrwq:1,2016-06-01T15:45:00Z,30.4162,-87.8228,44.0,1111122 
NERRS,ioos:station:NOAA.NERRS:wkbfrwq:1,2016-06-01T16:45:00Z,30.4162,-87.8228,46.0,1111122 
NERRS,ioos:station:NOAA.NERRS:wkbfrwq:1,2016-06-01T17:45:00Z,30.4162,-87.8228,75.0,1111122 
NERRS,ioos:station:NOAA.NERRS:wkbfrwq:1,2016-06-01T18:45:00Z,30.4162,-87.8228,96.0,1111122 
NERRS,ioos:station:NOAA.NERRS:wkbfrwq:1,2016-06-01T19:45:00Z,30.4162,-87.8228,107.0,1111122 
NERRS,ioos:station:NOAA.NERRS:wkbfrwq:1,2016-06-01T20:45:00Z,30.4162,-87.8228,86.0,1111122 
NERRS,ioos:station:NOAA.NERRS:wkbfrwq:1,2016-06-01T21:45:00Z,30.4162,-87.8228,74.0,1111122 
NERRS,ioos:station:NOAA.NERRS:wkbfrwq:1,2016-06-01T22:45:00Z,30.4162,-87.8228,46.0,1111122 
NERRS,ioos:station:NOAA.NERRS:wkbfrwq:1,2016-06-01T23:45:00Z,30.4162,-87.8228,69.0,1111122 
NERRS,ioos:station:NOAA.NERRS:wkbfrwq:1,2016-06-02T00:45:00Z,30.4162,-87.8228,100.0,1111122 
NERRS,ioos:station:NOAA.NERRS:wkbfrwq:1,2016-06-02T01:45:00Z,30.4162,-87.8228,72.0,1111122 
NERRS,ioos:station:NOAA.NERRS:wkbfrwq:1,2016-06-02T03:45:00Z,30.4162,-87.8228,34.0,1111122 
NERRS,ioos:station:NOAA.NERRS:wkbfrwq:1,2016-06-02T04:45:00Z,30.4162,-87.8228,68.0,1111122 
NERRS,ioos:station:NOAA.NERRS:wkbfrwq:1,2016-06-02T05:45:00Z,30.4162,-87.8228,49.0,1111122 
NERRS,ioos:station:NOAA.NERRS:wkbfrwq:1,2016-06-02T07:45:00Z,30.4162,-87.8228,50.0,1111122 
NERRS,ioos:station:NOAA.NERRS:wkbfrwq:1,2016-06-02T08:45:00Z,30.4162,-87.8228,47.0,1111122 
NERRS,ioos:station:NOAA.NERRS:wkbfrwq:1,2016-06-02T09:45:00Z,30.4162,-87.8228,50.0,1111122 
NERRS,ioos:station:NOAA.NERRS:wkbfrwq:1,2016-06-02T11:45:00Z,30.4162,-87.8228,49.0,1111122 
NERRS,ioos:station:NOAA.NERRS:wkbfrwq:1,2016-06-02T12:45:00Z,30.4162,-87.8228,57.0,1111122 
NERRS,ioos:station:NOAA.NERRS:wkbfrwq:1,2016-06-02T13:45:00Z,30.4162,-87.8228,85.0,1111122 
NERRS,ioos:station:NOAA.NERRS:wkbfrwq:1,2016-06-02T14:45:00Z,30.4162,-87.8228,103.0,1111122 
NERRS,ioos:station:NOAA.NERRS:wkbfrwq:1,2016-06-02T15:45:00Z,30.4162,-87.8228,89.0,1111122 
NERRS,ioos:station:NOAA.NERRS:wkbfrwq:1,2016-06-02T16:45:00Z,30.4162,-87.8228,156.0,1111122 
NERRS,ioos:station:NOAA.NERRS:wkbfrwq:1,2016-06-02T17:45:00Z,30.4162,-87.8228,205.0,1111122 
NERRS,ioos:station:NOAA.NERRS:wkbfrwq:1,2016-06-02T18:45:00Z,30.4162,-87.8228,219.0,1111122 
NERRS,ioos:station:NOAA.NERRS:wkbfrwq:1,2016-06-02T19:45:00Z,30.4162,-87.8228,207.0,1111122 
NERRS,ioos:station:NOAA.NERRS:wkbfrwq:1,2016-06-02T20:45:00Z,30.4162,-87.8228,27.0,1111122 
NERRS,ioos:station:NOAA.NERRS:wkbfrwq:1,2016-06-02T21:45:00Z,30.4162,-87.8228,35.0,1111122 
NERRS,ioos:station:NOAA.NERRS:wkbfrwq:1,2016-06-02T22:45:00Z,30.4162,-87.8228,41.0,1111122 
NERRS,ioos:station:NOAA.NERRS:wkbfrwq:1,2016-06-02T23:45:00Z,30.4162,-87.8228,46.0,1111122 
NERRS,ioos:station:NOAA.NERRS:wkbfrwq:1,2016-06-03T00:45:00Z,30.4162,-87.8228,49.0,1111122 
NERRS,ioos:station:NOAA.NERRS:wkbfrwq:1,2016-06-03T01:45:00Z,30.4162,-87.8228,53.0,1111122 
NERRS,ioos:station:NOAA.NERRS:wkbfrwq:1,2016-06-03T02:45:00Z,30.4162,-87.8228,47.0,1111122 
NERRS,ioos:station:NOAA.NERRS:wkbfrwq:1,2016-06-03T04:45:00Z,30.4162,-87.8228,56.0,1111122 
NERRS,ioos:station:NOAA.NERRS:wkbfrwq:1,2016-06-03T05:45:00Z,30.4162,-87.8228,61.0,1111122 
NERRS,ioos:station:NOAA.NERRS:wkbfrwq:1,2016-06-03T06:45:00Z,30.4162,-87.8228,64.0,1111122 
NERRS,ioos:station:NOAA.NERRS:wkbfrwq:1,2016-06-03T07:45:00Z,30.4162,-87.8228,69.0,1111122 
NERRS,ioos:station:NOAA.NERRS:wkbfrwq:1,2016-06-03T09:45:00Z,30.4162,-87.8228,62.0,1111122 
NERRS,ioos:station:NOAA.NERRS:wkbfrwq:1,2016-06-03T11:45:00Z,30.4162,-87.8228,61.0,1111122 
NERRS,ioos:station:NOAA.NERRS:wkbfrwq:1,2016-06-03T12:45:00Z,30.4162,-87.8228,69.0,1111122 
NERRS,ioos:station:NOAA.NERRS:wkbfrwq:1,2016-06-03T13:45:00Z,30.4162,-87.8228,75.0,1111122 
NERRS,ioos:station:NOAA.NERRS:wkbfrwq:1,2016-06-03T14:45:00Z,30.4162,-87.8228,80.0,1111122 
NERRS,ioos:station:NOAA.NERRS:wkbfrwq:1,2016-06-03T15:45:00Z,30.4162,-87.8228,90.0,1111122 
NERRS,ioos:station:NOAA.NERRS:wkbfrwq:1,2016-06-03T16:45:00Z,30.4162,-87.8228,84.0,1111122 
NERRS,ioos:station:NOAA.NERRS:wkbfrwq:1,2016-06-03T17:45:00Z,30.4162,-87.8228,76.0,1111122 
NERRS,ioos:station:NOAA.NERRS:wkbfrwq:1,2016-06-03T18:45:00Z,30.4162,-87.8228,85.0,1111122 
NERRS,ioos:station:NOAA.NERRS:wkbfrwq:1,2016-06-03T19:45:00Z,30.4162,-87.8228,77.0,1111122 
NERRS,ioos:station:NOAA.NERRS:wkbfrwq:1,2016-06-03T20:45:00Z,30.4162,-87.8228,75.0,1111122 
NERRS,ioos:station:NOAA.NERRS:wkbfrwq:1,2016-06-03T21:45:00Z,30.4162,-87.8228,84.0,1111122 
NERRS,ioos:station:NOAA.NERRS:wkbfrwq:1,2016-06-03T22:45:00Z,30.4162,-87.8228,93.0,1111122 
NERRS,ioos:station:NOAA.NERRS:wkbfrwq:1,2016-06-03T23:45:00Z,30.4162,-87.8228,94.0,1111122 
NERRS,ioos:station:NOAA.NERRS:wkbfrwq:1,2016-06-04T00:45:00Z,30.4162,-87.8228,102.0,1111122 
NERRS,ioos:station:NOAA.NERRS:wkbfrwq:1,2016-06-04T01:45:00Z,30.4162,-87.8228,95.0,1111122 
NERRS,ioos:station:NOAA.NERRS:wkbfrwq:1,2016-06-04T02:45:00Z,30.4162,-87.8228,74.0,1111122 
NERRS,ioos:station:NOAA.NERRS:wkbfrwq:1,2016-06-04T03:45:00Z,30.4162,-87.8228,85.0,1111122 
NERRS,ioos:station:NOAA.NERRS:wkbfrwq:1,2016-06-04T04:45:00Z,30.4162,-87.8228,75.0,1111122 
NERRS,ioos:station:NOAA.NERRS:wkbfrwq:1,2016-06-04T05:45:00Z,30.4162,-87.8228,51.0,1111122 
NERRS,ioos:station:NOAA.NERRS:wkbfrwq:1,2016-06-04T06:45:00Z,30.4162,-87.8228,63.0,1111122 
NERRS,ioos:station:NOAA.NERRS:wkbfrwq:1,2016-06-04T07:45:00Z,30.4162,-87.8228,61.0,1111122 
NERRS,ioos:station:NOAA.NERRS:wkbfrwq:1,2016-06-04T08:45:00Z,30.4162,-87.8228,60.0,1111122 
NERRS,ioos:station:NOAA.NERRS:wkbfrwq:1,2016-06-04T09:45:00Z,30.4162,-87.8228,68.0,1111122 
NERRS,ioos:station:NOAA.NERRS:wkbfrwq:1,2016-06-04T10:45:00Z,30.4162,-87.8228,52.0,1111122 
NERRS,ioos:station:NOAA.NERRS:wkbfrwq:1,2016-06-04T11:45:00Z,30.4162,-87.8228,44.0,1111122 
NERRS,ioos:station:NOAA.NERRS:wkbfrwq:1,2016-06-04T12:45:00Z,30.4162,-87.8228,61.0,1111122 
NERRS,ioos:station:NOAA.NERRS:wkbfrwq:1,2016-06-04T13:45:00Z,30.4162,-87.8228,71.0,1111122 
NERRS,ioos:station:NOAA.NERRS:wkbfrwq:1,2016-06-04T14:45:00Z,30.4162,-87.8228,70.0,1111122 
NERRS,ioos:station:NOAA.NERRS:wkbfrwq:1,2016-06-04T15:45:00Z,30.4162,-87.8228,54.0,1111122 
NERRS,ioos:station:NOAA.NERRS:wkbfrwq:1,2016-06-04T16:45:00Z,30.4162,-87.8228,81.0,1111122 
NERRS,ioos:station:NOAA.NERRS:wkbfrwq:1,2016-06-04T17:45:00Z,30.4162,-87.8228,65.0,1111122 
NERRS,ioos:station:NOAA.NERRS:wkbfrwq:1,2016-06-04T18:45:00Z,30.4162,-87.8228,59.0,1111122 
NERRS,ioos:station:NOAA.NERRS:wkbfrwq:1,2016-06-04T19:45:00Z,30.4162,-87.8228,67.0,1111122 
NERRS,ioos:station:NOAA.NERRS:wkbfrwq:1,2016-06-04T20:45:00Z,30.4162,-87.8228,68.0,1111122 
NERRS,ioos:station:NOAA.NERRS:wkbfrwq:1,2016-06-04T21:45:00Z,30.4162,-87.8228,69.0,1111122 
NERRS,ioos:station:NOAA.NERRS:wkbfrwq:1,2016-06-04T22:45:00Z,30.4162,-87.8228,75.0,1111122 
NERRS,ioos:station:NOAA.NERRS:wkbfrwq:1,2016-06-04T23:45:00Z,30.4162,-87.8228,74.0,1111122 
NERRS,ioos:station:NOAA.NERRS:wkbfrwq:1,2016-06-05T00:45:00Z,30.4162,-87.8228,87.0,1111122 
NERRS,ioos:station:NOAA.NERRS:wkbfrwq:1,2016-06-05T01:45:00Z,30.4162,-87.8228,186.0,1111122 
NERRS,ioos:station:NOAA.NERRS:wkbfrwq:1,2016-06-05T02:45:00Z,30.4162,-87.8228,62.0,1111122 
NERRS,ioos:station:NOAA.NERRS:wkbfrwq:1,2016-06-05T03:45:00Z,30.4162,-87.8228,77.0,1111122 
NERRS,ioos:station:NOAA.NERRS:wkbfrwq:1,2016-06-05T04:45:00Z,30.4162,-87.8228,84.0,1111122 
NERRS,ioos:station:NOAA.NERRS:wkbfrwq:1,2016-06-05T05:45:00Z,30.4162,-87.8228,51.0,1111122 
NERRS,ioos:station:NOAA.NERRS:wkbfrwq:1,2016-06-05T06:45:00Z,30.4162,-87.8228,49.0,1111122 
NERRS,ioos:station:NOAA.NERRS:wkbfrwq:1,2016-06-05T07:45:00Z,30.4162,-87.8228,55.0,1111122 
NERRS,ioos:station:NOAA.NERRS:wkbfrwq:1,2016-06-05T08:45:00Z,30.4162,-87.8228,60.0,1111122 
NERRS,ioos:station:NOAA.NERRS:wkbfrwq:1,2016-06-05T09:45:00Z,30.4162,-87.8228,56.0,1111122 
NERRS,ioos:station:NOAA.NERRS:wkbfrwq:1,2016-06-05T10:45:00Z,30.4162,-87.8228,54.0,1111122 
NERRS,ioos:station:NOAA.NERRS:wkbfrwq:1,2016-06-05T11:45:00Z,30.4162,-87.8228,59.0,1111122 
NERRS,ioos:station:NOAA.NERRS:wkbfrwq:1,2016-06-05T12:45:00Z,30.4162,-87.8228,35.0,1111122 
NERRS,ioos:station:NOAA.NERRS:wkbfrwq:1,2016-06-05T13:45:00Z,30.4162,-87.8228,42.0,1111122 
NERRS,ioos:station:NOAA.NERRS:wkbfrwq:1,2016-06-05T14:45:00Z,30.4162,-87.8228,59.0,1111122 
NERRS,ioos:station:NOAA.NERRS:wkbfrwq:1,2016-06-05T15:45:00Z,30.4162,-87.8228,56.0,1111122 
NERRS,ioos:station:NOAA.NERRS:wkbfrwq:1,2016-06-05T16:45:00Z,30.4162,-87.8228,51.0,1111122 
NERRS,ioos:station:NOAA.NERRS:wkbfrwq:1,2016-06-05T17:45:00Z,30.4162,-87.8228,59.0,1111122 
NERRS,ioos:station:NOAA.NERRS:wkbfrwq:1,2016-06-05T18:45:00Z,30.4162,-87.8228,62.0,1111122 
NERRS,ioos:station:NOAA.NERRS:wkbfrwq:1,2016-06-05T19:45:00Z,30.4162,-87.8228,68.0,1111122 
NERRS,ioos:station:NOAA.NERRS:wkbfrwq:1,2016-06-05T20:45:00Z,30.4162,-87.8228,70.0,1111122 
NERRS,ioos:station:NOAA.NERRS:wkbfrwq:1,2016-06-05T21:45:00Z,30.4162,-87.8228,67.0,1111122 
NERRS,ioos:station:NOAA.NERRS:wkbfrwq:1,2016-06-05T22:45:00Z,30.4162,-87.8228,75.0,1111122 
NERRS,ioos:station:NOAA.NERRS:wkbfrwq:1,2016-06-05T23:45:00Z,30.4162,-87.8228,80.0,1111122 
NERRS,ioos:station:NOAA.NERRS:wkbfrwq:1,2016-06-06T00:45:00Z,30.4162,-87.8228,97.0,1111122 
NERRS,ioos:station:NOAA.NERRS:wkbfrwq:1,2016-06-06T01:45:00Z,30.4162,-87.8228,102.0,1111122 
NERRS,ioos:station:NOAA.NERRS:wkbfrwq:1,2016-06-06T02:45:00Z,30.4162,-87.8228,90.0,1111122 
NERRS,ioos:station:NOAA.NERRS:wkbfrwq:1,2016-06-06T03:45:00Z,30.4162,-87.8228,99.0,1111122 
NERRS,ioos:station:NOAA.NERRS:wkbfrwq:1,2016-06-06T04:45:00Z,30.4162,-87.8228,99.0,1111122 
NERRS,ioos:station:NOAA.NERRS:wkbfrwq:1,2016-06-06T05:45:00Z,30.4162,-87.8228,97.0,1111122 
NERRS,ioos:station:NOAA.NERRS:wkbfrwq:1,2016-06-06T06:45:00Z,30.4162,-87.8228,43.0,1111122 
NERRS,ioos:station:NOAA.NERRS:wkbfrwq:1,2016-06-06T07:45:00Z,30.4162,-87.8228,55.0,1111122 
NERRS,ioos:station:NOAA.NERRS:wkbfrwq:1,2016-06-06T08:45:00Z,30.4162,-87.8228,57.0,1111122 
NERRS,ioos:station:NOAA.NERRS:wkbfrwq:1,2016-06-06T09:45:00Z,30.4162,-87.8228,58.0,1111122 
NERRS,ioos:station:NOAA.NERRS:wkbfrwq:1,2016-06-06T10:45:00Z,30.4162,-87.8228,59.0,1111122 
NERRS,ioos:station:NOAA.NERRS:wkbfrwq:1,2016-06-06T11:45:00Z,30.4162,-87.8228,45.0,1111122 
NERRS,ioos:station:NOAA.NERRS:wkbfrwq:1,2016-06-06T12:45:00Z,30.4162,-87.8228,54.0,1111122 
NERRS,ioos:station:NOAA.NERRS:wkbfrwq:1,2016-06-06T13:45:00Z,30.4162,-87.8228,50.0,1111122 
NERRS,ioos:station:NOAA.NERRS:wkbfrwq:1,2016-06-06T14:45:00Z,30.4162,-87.8228,49.0,1111122 
NERRS,ioos:station:NOAA.NERRS:wkbfrwq:1,2016-06-06T15:45:00Z,30.4162,-87.8228,48.0,1111122 
NERRS,ioos:station:NOAA.NERRS:wkbfrwq:1,2016-06-06T16:45:00Z,30.4162,-87.8228,45.0,1111122 
NERRS,ioos:station:NOAA.NERRS:wkbfrwq:1,2016-06-06T17:45:00Z,30.4162,-87.8228,49.0,1111122 
NERRS,ioos:station:NOAA.NERRS:wkbfrwq:1,2016-06-06T18:45:00Z,30.4162,-87.8228,51.0,1111122 
NERRS,ioos:station:NOAA.NERRS:wkbfrwq:1,2016-06-06T19:45:00Z,30.4162,-87.8228,77.0,1111122 
NERRS,ioos:station:NOAA.NERRS:wkbfrwq:1,2016-06-06T21:45:00Z,30.4162,-87.8228,46.0,1111122 
NERRS,ioos:station:NOAA.NERRS:wkbfrwq:1,2016-06-06T22:45:00Z,30.4162,-87.8228,55.0,1111122 
NERRS,ioos:station:NOAA.NERRS:wkbfrwq:1,2016-06-06T23:45:00Z,30.4162,-87.8228,48.0,1111122 
NERRS,ioos:station:NOAA.NERRS:wkbfrwq:1,2016-06-07T00:45:00Z,30.4162,-87.8228,51.0,1111122 
NERRS,ioos:station:NOAA.NERRS:wkbfrwq:1,2016-06-07T01:45:00Z,30.4162,-87.8228,56.0,1111122 
NERRS,ioos:station:NOAA.NERRS:wkbfrwq:1,2016-06-07T02:45:00Z,30.4162,-87.8228,43.0,1111122 
NERRS,ioos:station:NOAA.NERRS:wkbfrwq:1,2016-06-07T03:45:00Z,30.4162,-87.8228,52.0,1111122 
NERRS,ioos:station:NOAA.NERRS:wkbfrwq:1,2016-06-07T04:45:00Z,30.4162,-87.8228,47.0,1111122 
NERRS,ioos:station:NOAA.NERRS:wkbfrwq:1,2016-06-07T05:45:00Z,30.4162,-87.8228,48.0,1111122 
NERRS,ioos:station:NOAA.NERRS:wkbfrwq:1,2016-06-07T06:45:00Z,30.4162,-87.8228,48.0,1111122 
NERRS,ioos:station:NOAA.NERRS:wkbfrwq:1,2016-06-07T07:45:00Z,30.4162,-87.8228,46.0,1111122 
NERRS,ioos:station:NOAA.NERRS:wkbfrwq:1,2016-06-07T08:45:00Z,30.4162,-87.8228,41.0,1111122 
NERRS,ioos:station:NOAA.NERRS:wkbfrwq:1,2016-06-07T09:45:00Z,30.4162,-87.8228,35.0,1111122 
NERRS,ioos:station:NOAA.NERRS:wkbfrwq:1,2016-06-07T10:45:00Z,30.4162,-87.8228,38.0,1111122 
NERRS,ioos:station:NOAA.NERRS:wkbfrwq:1,2016-06-07T11:45:00Z,30.4162,-87.8228,36.0,1111122 
NERRS,ioos:station:NOAA.NERRS:wkbfrwq:1,2016-06-07T12:45:00Z,30.4162,-87.8228,35.0,1111122 
NERRS,ioos:station:NOAA.NERRS:wkbfrwq:1,2016-06-07T13:45:00Z,30.4162,-87.8228,36.0,1111122 
NERRS,ioos:station:NOAA.NERRS:wkbfrwq:1,2016-06-07T14:45:00Z,30.4162,-87.8228,37.0,1111122 
NERRS,ioos:station:NOAA.NERRS:wkbfrwq:1,2016-06-07T15:45:00Z,30.4162,-87.8228,39.0,1111122 
NERRS,ioos:station:NOAA.NERRS:wkbfrwq:1,2016-06-07T16:45:00Z,30.4162,-87.8228,38.0,1111122 
NERRS,ioos:station:NOAA.NERRS:wkbfrwq:1,2016-06-07T17:45:00Z,30.4162,-87.8228,43.0,1111122 
NERRS,ioos:station:NOAA.NERRS:wkbfrwq:1,2016-06-07T18:45:00Z,30.4162,-87.8228,42.0,1111122 
NERRS,ioos:station:NOAA.NERRS:wkbfrwq:1,2016-06-07T19:45:00Z,30.4162,-87.8228,43.0,1111122 
NERRS,ioos:station:NOAA.NERRS:wkbfrwq:1,2016-06-07T20:45:00Z,30.4162,-87.8228,37.0,1111122 
NERRS,ioos:station:NOAA.NERRS:wkbfrwq:1,2016-06-07T21:45:00Z,30.4162,-87.8228,40.0,1111122 
NERRS,ioos:station:NOAA.NERRS:wkbfrwq:1,2016-06-07T22:45:00Z,30.4162,-87.8228,40.0,1111122 
NERRS,ioos:station:NOAA.NERRS:wkbfrwq:1,2016-06-07T23:45:00Z,30.4162,-87.8228,39.0,1111122 
NERRS,ioos:station:NOAA.NERRS:wkbfrwq:1,2016-06-08T00:45:00Z,30.4162,-87.8228,47.0,1111122 
NERRS,ioos:station:NOAA.NERRS:wkbfrwq:1,2016-06-08T01:45:00Z,30.4162,-87.8228,44.0,1111122 
NERRS,ioos:station:NOAA.NERRS:wkbfrwq:1,2016-06-08T02:45:00Z,30.4162,-87.8228,50.0,1111122 
NERRS,ioos:station:NOAA.NERRS:wkbfrwq:1,2016-06-08T03:45:00Z,30.4162,-87.8228,59.0,1111122 
NERRS,ioos:station:NOAA.NERRS:wkbfrwq:1,2016-06-08T04:45:00Z,30.4162,-87.8228,62.0,1111122 
NERRS,ioos:station:NOAA.NERRS:wkbfrwq:1,2016-06-08T05:45:00Z,30.4162,-87.8228,45.0,1111122 
NERRS,ioos:station:NOAA.NERRS:wkbfrwq:1,2016-06-08T06:45:00Z,30.4162,-87.8228,47.0,1111122 
NERRS,ioos:station:NOAA.NERRS:wkbfrwq:1,2016-06-08T07:45:00Z,30.4162,-87.8228,45.0,1111122 
NERRS,ioos:station:NOAA.NERRS:wkbfrwq:1,2016-06-08T08:45:00Z,30.4162,-87.8228,46.0,1111122 
NERRS,ioos:station:NOAA.NERRS:wkbfrwq:1,2016-06-08T09:45:00Z,30.4162,-87.8228,51.0,1111122 
NERRS,ioos:station:NOAA.NERRS:wkbfrwq:1,2016-06-08T10:45:00Z,30.4162,-87.8228,45.0,1111122 
NERRS,ioos:station:NOAA.NERRS:wkbfrwq:1,2016-06-08T11:45:00Z,30.4162,-87.8228,49.0,1111122 
NERRS,ioos:station:NOAA.NERRS:wkbfrwq:1,2016-06-08T12:45:00Z,30.4162,-87.8228,52.0,1111122 
NERRS,ioos:station:NOAA.NERRS:wkbfrwq:1,2016-06-08T13:45:00Z,30.4162,-87.8228,42.0,1111122 
NERRS,ioos:station:NOAA.NERRS:wkbfrwq:1,2016-06-08T14:45:00Z,30.4162,-87.8228,44.0,1111122 
NERRS,ioos:station:NOAA.NERRS:wkbfrwq:1,2016-06-08T15:45:00Z,30.4162,-87.8228,50.0,1111122 
NERRS,ioos:station:NOAA.NERRS:wkbfrwq:1,2016-06-08T16:45:00Z,30.4162,-87.8228,58.0,1111122 
NERRS,ioos:station:NOAA.NERRS:wkbfrwq:1,2016-06-08T17:45:00Z,30.4162,-87.8228,47.0,1111122 
NERRS,ioos:station:NOAA.NERRS:wkbfrwq:1,2016-06-08T18:45:00Z,30.4162,-87.8228,51.0,1111122 
NERRS,ioos:station:NOAA.NERRS:wkbfrwq:1,2016-06-08T19:45:00Z,30.4162,-87.8228,56.0,1111122 
NERRS,ioos:station:NOAA.NERRS:wkbfrwq:1,2016-06-08T20:45:00Z,30.4162,-87.8228,61.0,1111122 
NERRS,ioos:station:NOAA.NERRS:wkbfrwq:1,2016-06-08T21:45:00Z,30.4162,-87.8228,60.0,1111122 
NERRS,ioos:station:NOAA.NERRS:wkbfrwq:1,2016-06-08T22:45:00Z,30.4162,-87.8228,56.0,1111122 
NERRS,ioos:station:NOAA.NERRS:wkbfrwq:1,2016-06-08T23:45:00Z,30.4162,-87.8228,50.0,1111122 
NERRS,ioos:station:NOAA.NERRS:wkbfrwq:1,2016-06-09T00:45:00Z,30.4162,-87.8228,59.0,1111122 
NERRS,ioos:station:NOAA.NERRS:wkbfrwq:1,2016-06-09T01:45:00Z,30.4162,-87.8228,65.0,1111122 
NERRS,ioos:station:NOAA.NERRS:wkbfrwq:1,2016-06-09T02:45:00Z,30.4162,-87.8228,66.0,1111122 
NERRS,ioos:station:NOAA.NERRS:wkbfrwq:1,2016-06-09T03:45:00Z,30.4162,-87.8228,62.0,1111122 
NERRS,ioos:station:NOAA.NERRS:wkbfrwq:1,2016-06-09T04:45:00Z,30.4162,-87.8228,76.0,1111122 
NERRS,ioos:station:NOAA.NERRS:wkbfrwq:1,2016-06-09T05:45:00Z,30.4162,-87.8228,69.0,1111122 
NERRS,ioos:station:NOAA.NERRS:wkbfrwq:1,2016-06-09T06:45:00Z,30.4162,-87.8228,75.0,1111122 
NERRS,ioos:station:NOAA.NERRS:wkbfrwq:1,2016-06-09T07:45:00Z,30.4162,-87.8228,83.0,1111122 
NERRS,ioos:station:NOAA.NERRS:wkbfrwq:1,2016-06-09T08:45:00Z,30.4162,-87.8228,70.0,1111122 
NERRS,ioos:station:NOAA.NERRS:wkbfrwq:1,2016-06-09T09:45:00Z,30.4162,-87.8228,82.0,1111122 
NERRS,ioos:station:NOAA.NERRS:wkbfrwq:1,2016-06-09T10:45:00Z,30.4162,-87.8228,63.0,1111122 
NERRS,ioos:station:NOAA.NERRS:wkbfrwq:1,2016-06-09T11:45:00Z,30.4162,-87.8228,77.0,1111122 
NERRS,ioos:station:NOAA.NERRS:wkbfrwq:1,2016-06-09T12:45:00Z,30.4162,-87.8228,88.0,1111122 
NERRS,ioos:station:NOAA.NERRS:wkbfrwq:1,2016-06-09T13:45:00Z,30.4162,-87.8228,79.0,1111122 
NERRS,ioos:station:NOAA.NERRS:wkbfrwq:1,2016-06-09T14:45:00Z,30.4162,-87.8228,84.0,1111122 
NERRS,ioos:station:NOAA.NERRS:wkbfrwq:1,2016-06-09T15:45:00Z,30.4162,-87.8228,83.0,1111122 
NERRS,ioos:station:NOAA.NERRS:wkbfrwq:1,2016-06-09T16:45:00Z,30.4162,-87.8228,84.0,1111122 
NERRS,ioos:station:NOAA.NERRS:wkbfrwq:1,2016-06-09T17:45:00Z,30.4162,-87.8228,86.0,1111122 
NERRS,ioos:station:NOAA.NERRS:wkbfrwq:1,2016-06-09T18:45:00Z,30.4162,-87.8228,91.0,1111122 
NERRS,ioos:station:NOAA.NERRS:wkbfrwq:1,2016-06-09T19:45:00Z,30.4162,-87.8228,88.0,1111122 
NERRS,ioos:station:NOAA.NERRS:wkbfrwq:1,2016-06-09T20:45:00Z,30.4162,-87.8228,114.0,1111122 
NERRS,ioos:station:NOAA.NERRS:wkbfrwq:1,2016-06-09T21:45:00Z,30.4162,-87.8228,109.0,1111122 
NERRS,ioos:station:NOAA.NERRS:wkbfrwq:1,2016-06-09T22:45:00Z,30.4162,-87.8228,104.0,1111122 
NERRS,ioos:station:NOAA.NERRS:wkbfrwq:1,2016-06-09T23:45:00Z,30.4162,-87.8228,100.0,1111122 
NERRS,ioos:station:NOAA.NERRS:wkbfrwq:1,2016-06-10T00:45:00Z,30.4162,-87.8228,123.0,1111122 
NERRS,ioos:station:NOAA.NERRS:wkbfrwq:1,2016-06-10T01:45:00Z,30.4162,-87.8228,110.0,1111122 
NERRS,ioos:station:NOAA.NERRS:wkbfrwq:1,2016-06-10T02:45:00Z,30.4162,-87.8228,84.0,1111122 
NERRS,ioos:station:NOAA.NERRS:wkbfrwq:1,2016-06-10T03:45:00Z,30.4162,-87.8228,107.0,1111122 
NERRS,ioos:station:NOAA.NERRS:wkbfrwq:1,2016-06-10T04:45:00Z,30.4162,-87.8228,71.0,1111122 
NERRS,ioos:station:NOAA.NERRS:wkbfrwq:1,2016-06-10T05:45:00Z,30.4162,-87.8228,86.0,1111122 
NERRS,ioos:station:NOAA.NERRS:wkbfrwq:1,2016-06-10T06:45:00Z,30.4162,-87.8228,96.0,1111122 
NERRS,ioos:station:NOAA.NERRS:wkbfrwq:1,2016-06-10T07:45:00Z,30.4162,-87.8228,86.0,1111122 
NERRS,ioos:station:NOAA.NERRS:wkbfrwq:1,2016-06-10T08:45:00Z,30.4162,-87.8228,22.0,1111122 
NERRS,ioos:station:NOAA.NERRS:wkbfrwq:1,2016-06-10T09:45:00Z,30.4162,-87.8228,293.0,1111122 
NERRS,ioos:station:NOAA.NERRS:wkbfrwq:1,2016-06-10T10:45:00Z,30.4162,-87.8228,13.0,1111122 
NERRS,ioos:station:NOAA.NERRS:wkbfrwq:1,2016-06-10T11:45:00Z,30.4162,-87.8228,10.0,1111122 
NERRS,ioos:station:NOAA.NERRS:wkbfrwq:1,2016-06-10T12:45:00Z,30.4162,-87.8228,9.0,1111122 
NERRS,ioos:station:NOAA.NERRS:wkbfrwq:1,2016-06-10T13:45:00Z,30.4162,-87.8228,11.0,1111122 
NERRS,ioos:station:NOAA.NERRS:wkbfrwq:1,2016-06-10T14:45:00Z,30.4162,-87.8228,13.0,1111122 
NERRS,ioos:station:NOAA.NERRS:wkbfrwq:1,2016-06-10T15:45:00Z,30.4162,-87.8228,12.0,1111122 
NERRS,ioos:station:NOAA.NERRS:wkbfrwq:1,2016-06-10T16:45:00Z,30.4162,-87.8228,10.0,1111122 
NERRS,ioos:station:NOAA.NERRS:wkbfrwq:1,2016-06-10T17:45:00Z,30.4162,-87.8228,12.0,1111122 
NERRS,ioos:station:NOAA.NERRS:wkbfrwq:1,2016-06-10T18:45:00Z,30.4162,-87.8228,13.0,1111122 
NERRS,ioos:station:NOAA.NERRS:wkbfrwq:1,2016-06-10T19:45:00Z,30.4162,-87.8228,12.0,1111122 
NERRS,ioos:station:NOAA.NERRS:wkbfrwq:1,2016-06-10T20:45:00Z,30.4162,-87.8228,14.0,1111122 
NERRS,ioos:station:NOAA.NERRS:wkbfrwq:1,2016-06-10T21:45:00Z,30.4162,-87.8228,15.0,1111122 
NERRS,ioos:station:NOAA.NERRS:wkbfrwq:1,2016-06-10T22:45:00Z,30.4162,-87.8228,13.0,1111122 
NERRS,ioos:station:NOAA.NERRS:wkbfrwq:1,2016-06-10T23:45:00Z,30.4162,-87.8228,12.0,1111122 
NERRS,ioos:station:NOAA.NERRS:wkbfrwq:1,2016-06-11T00:45:00Z,30.4162,-87.8228,13.0,1111122 
NERRS,ioos:station:NOAA.NERRS:wkbfrwq:1,2016-06-11T01:45:00Z,30.4162,-87.8228,10.0,1111122 
NERRS,ioos:station:NOAA.NERRS:wkbfrwq:1,2016-06-11T02:45:00Z,30.4162,-87.8228,8.0,1111122 
NERRS,ioos:station:NOAA.NERRS:wkbfrwq:1,2016-06-11T03:45:00Z,30.4162,-87.8228,7.0,1111122 
NERRS,ioos:station:NOAA.NERRS:wkbfrwq:1,2016-06-11T04:45:00Z,30.4162,-87.8228,7.0,1111122 
NERRS,ioos:station:NOAA.NERRS:wkbfrwq:1,2016-06-11T05:45:00Z,30.4162,-87.8228,8.0,1111122 
NERRS,ioos:station:NOAA.NERRS:wkbfrwq:1,2016-06-11T06:45:00Z,30.4162,-87.8228,7.0,1111122 
NERRS,ioos:station:NOAA.NERRS:wkbfrwq:1,2016-06-11T07:45:00Z,30.4162,-87.8228,6.0,1111122 
NERRS,ioos:station:NOAA.NERRS:wkbfrwq:1,2016-06-11T08:45:00Z,30.4162,-87.8228,6.0,1111122 
NERRS,ioos:station:NOAA.NERRS:wkbfrwq:1,2016-06-11T09:45:00Z,30.4162,-87.8228,6.0,1111122 
NERRS,ioos:station:NOAA.NERRS:wkbfrwq:1,2016-06-11T10:45:00Z,30.4162,-87.8228,10.0,1111122 
NERRS,ioos:station:NOAA.NERRS:wkbfrwq:1,2016-06-11T11:45:00Z,30.4162,-87.8228,6.0,1111122 
NERRS,ioos:station:NOAA.NERRS:wkbfrwq:1,2016-06-11T12:45:00Z,30.4162,-87.8228,9.0,1111122 
NERRS,ioos:station:NOAA.NERRS:wkbfrwq:1,2016-06-11T13:45:00Z,30.4162,-87.8228,9.0,1111122 
NERRS,ioos:station:NOAA.NERRS:wkbfrwq:1,2016-06-11T14:45:00Z,30.4162,-87.8228,9.0,1111122 
NERRS,ioos:station:NOAA.NERRS:wkbfrwq:1,2016-06-11T15:45:00Z,30.4162,-87.8228,9.0,1111122 
NERRS,ioos:station:NOAA.NERRS:wkbfrwq:1,2016-06-11T16:45:00Z,30.4162,-87.8228,11.0,1111122 
NERRS,ioos:station:NOAA.NERRS:wkbfrwq:1,2016-06-11T17:45:00Z,30.4162,-87.8228,9.0,1111122 
NERRS,ioos:station:NOAA.NERRS:wkbfrwq:1,2016-06-11T18:45:00Z,30.4162,-87.8228,11.0,1111122 
NERRS,ioos:station:NOAA.NERRS:wkbfrwq:1,2016-06-11T19:45:00Z,30.4162,-87.8228,9.0,1111122 
NERRS,ioos:station:NOAA.NERRS:wkbfrwq:1,2016-06-11T20:45:00Z,30.4162,-87.8228,11.0,1111122 
NERRS,ioos:station:NOAA.NERRS:wkbfrwq:1,2016-06-11T21:45:00Z,30.4162,-87.8228,13.0,1111122 
NERRS,ioos:station:NOAA.NERRS:wkbfrwq:1,2016-06-11T22:45:00Z,30.4162,-87.8228,8.0,1111122 
NERRS,ioos:station:NOAA.NERRS:wkbfrwq:1,2016-06-11T23:45:00Z,30.4162,-87.8228,10.0,1111122 
NERRS,ioos:station:NOAA.NERRS:wkbfrwq:1,2016-06-12T00:45:00Z,30.4162,-87.8228,10.0,1111122 
NERRS,ioos:station:NOAA.NERRS:wkbfrwq:1,2016-06-12T01:45:00Z,30.4162,-87.8228,9.0,1111122 
NERRS,ioos:station:NOAA.NERRS:wkbfrwq:1,2016-06-12T02:45:00Z,30.4162,-87.8228,7.0,1111122 
NERRS,ioos:station:NOAA.NERRS:wkbfrwq:1,2016-06-12T03:45:00Z,30.4162,-87.8228,9.0,1111122 
NERRS,ioos:station:NOAA.NERRS:wkbfrwq:1,2016-06-12T04:45:00Z,30.4162,-87.8228,7.0,1111122 